Lebanon, NH

9:10 AM EST on December 08, 2019 (GMT -0500)
Lebanon Municipal

Weather History for KLEB - November, 2019

Change the Weather History Date:

Saturday, November 16, 2019

  Actual Average Record
Temperature  
Mean Temperature 22 °F -  
Max Temperature 30 °F 42 °F 68 °F (1926)
Min Temperature 12 °F 25 °F 0 °F (1933)
Degree Days  
Heating Degree Days 43    
Moisture  
Dew Point 2 °F    
Average Humidity 45    
Maximum Humidity 71    
Minimum Humidity 24    
Precipitation  
Precipitation 0.00 in - - ()
Sea Level Pressure  
Sea Level Pressure 30.53 in    
Wind  
Wind Speed 7 mph ()    
Max Wind Speed 16 mph    
Max Gust Speed 31 mph    
Visibility 10.0 miles    
Events      
Averages and records for this station are not official NWS values.
T = Trace of Precipitation, MM = Missing Value Source: Averaged Metar Reports

Daily Weather History Graph

Daily Weather History Graph

Search for Another Location

Airport or City:

Astronomy

Nov. 16, 2019 Rise Set
Actual Time 6:44 AM EST 4:23 PM EST
Civil Twilight 6:13 AM EST 4:54 PM EST
Nautical Twilight 5:38 AM EST 5:28 PM EST
Astronomical Twilight 5:04 AM EST 6:02 PM EST
Moon 7:49 PM EST (11/16) 10:38 AM EST (11/16)
Length of Visible Light 10h 41m
Length of Day
9h 39m
Waning Gibbous, 82% of the Moon is Illuminated
Nov 16
Waning Gibbous
Nov 19
Last Quarter
Nov 26
New
Dec 4
First Quarter
Dec 12
Full

Hourly Weather History & Observations

Time (EST) Temp. Windchill Dew Point Humidity Pressure Visibility Wind Dir Wind Speed Gust Speed Precip Events Conditions
12:53 AM 27.0 °F 14.7 °F 3.9 °F 37% 30.33 in 10.0 mi NNW 16.1 mph 31.1 mph N/A   Clear
1:53 AM 24.1 °F 12.5 °F 5.0 °F 44% 30.38 in 10.0 mi NNW 12.7 mph 29.9 mph N/A   Clear
2:53 AM 23.0 °F 13.1 °F 5.0 °F 46% 30.40 in 10.0 mi North 9.2 mph - N/A   Clear
3:53 AM 21.0 °F 10.6 °F 1.0 °F 42% 30.42 in 10.0 mi North 9.2 mph 17.3 mph N/A   Clear
4:53 AM 19.0 °F 10.0 °F 1.0 °F 46% 30.46 in 10.0 mi North 6.9 mph - N/A   Clear
5:53 AM 19.0 °F 8.2 °F -0.9 °F 42% 30.51 in 10.0 mi North 9.2 mph - N/A   Clear
6:53 AM 17.1 °F 8.7 °F -0.0 °F 47% 30.54 in 10.0 mi North 5.8 mph - N/A   Clear
7:53 AM 18.0 °F 8.7 °F 1.0 °F 48% 30.58 in 10.0 mi NNE 6.9 mph - N/A   Clear
8:53 AM 19.9 °F 13.4 °F 1.0 °F 44% 30.61 in 10.0 mi Variable 4.6 mph - N/A   Clear
9:53 AM 21.0 °F - 1.0 °F 42% 30.61 in 10.0 mi Calm Calm - N/A   Clear
10:53 AM 23.0 °F 17.0 °F 3.0 °F 42% 30.61 in 10.0 mi Variable 4.6 mph - N/A   Clear
11:53 AM 26.1 °F 18.4 °F 3.9 °F 39% 30.58 in 10.0 mi NNW 6.9 mph - N/A   Clear
12:53 PM 28.9 °F 21.9 °F 1.0 °F 30% 30.55 in 10.0 mi Variable 6.9 mph - N/A   Clear
1:53 PM 30.0 °F 18.7 °F -2.9 °F 24% 30.53 in 10.0 mi North 16.1 mph 20.7 mph N/A   Clear
2:53 PM 28.9 °F 19.8 °F -0.9 °F 28% 30.53 in 10.0 mi North 10.4 mph - N/A   Clear
3:53 PM 28.0 °F 20.0 °F -0.9 °F 29% 30.53 in 10.0 mi North 8.1 mph - N/A   Clear
4:53 PM 25.0 °F 18.1 °F -0.0 °F 34% 30.54 in 10.0 mi North 5.8 mph - N/A   Clear
5:53 PM 21.0 °F 16.2 °F 3.0 °F 46% 30.58 in 10.0 mi North 3.5 mph - N/A   Clear
6:53 PM 18.0 °F - 5.0 °F 57% 30.58 in 10.0 mi Calm Calm - N/A   Clear
7:53 PM 17.1 °F - 3.9 °F 56% 30.58 in 10.0 mi Calm Calm - N/A   Clear
8:53 PM 15.1 °F - 5.0 °F 64% 30.59 in 10.0 mi Calm Calm - N/A   Clear
9:53 PM 14.0 °F - 5.0 °F 67% 30.59 in 10.0 mi Calm Calm - N/A   Clear
10:53 PM 14.0 °F - 5.0 °F 67% 30.59 in 10.0 mi Calm Calm - N/A   Clear
11:53 PM 12.9 °F - 5.0 °F 71% 30.58 in 10.0 mi Calm Calm - N/A   Clear